カタログに戻る

COSMOS 1823 DEB

運用中LEO
NORAD 39823·DEBRIS·🇷🇺 Russia

打ち上げ Feb 20, 1987 から Plesetsk Cosmodrome

Loading…

次のパス (今後24時間)

TLE

経年Source: Space-Track

元期: Sep 12, 2026, 08:17 UTC

1 39823U 87020EX  26255.34532376  .00000197  00000-0  14868-2 0  9991
2 39823  73.7101  18.7480 0043646 259.9502 130.3771 12.45559245 38026

AllMySatでCOSMOS 1823 DEBをリアルタイム追跡

Download on the App Store